Location: Cisewo
(53.3833°N, 14.9000°E)
Time: 06:44:45
(UTC+00:00)

BEESAT 3 - Pass Details

Date: 01 October 2021
Orbit: 481 x 510 km, 64.9° (Epoch: 24 October)

Event Time Altitude Azimuth Distance (km) Brightness Sun altitude
Rises 18:43:50 0° 316° (NW) 2,616 ? -19.4°
Reaches altitude 10° 18:46:12 10° 327° (NNW) 1,732 ? -19.8°
Maximum altitude 18:49:38 29° 30° (NNE) 958 ? -20.2°
Enters shadow 18:49:54 29° 38° (NE) 965 ? -20.3°
